Home > Weather > Nanning > Past weeks

Flag for China Weather for the Past 2 Weeks in Nanning, Guangxi, China

Now
79 °F

Clear.


Feels Like: 82 °F
Forecast: 75 / 93 °F
Wind: 1 mph from North

Location: Nanning Airport

Current Time: May 7, 2016 at 3:27:18 AM

Latest Report: May 7, 2016 at 3:00 AM


Visibility: 10 mi

Pressure: 29.68 "Hg

Humidity: 84%

Dew Point: 73 °F

Location of NanningLocation

Historic Weather in Nanning — Graph

°F

Nanning Temperature Yesterday

Maximum temperature yesterday: 93 °F (at 2:00 PM)
Minimum temperature yesterday: 75 °F (at 5:00 AM)
Average temperature yesterday: 83 °F

High & Low Weather Summary for the Past Weeks

 TemperatureHumidityPressure
High93 °F (May 6, 2:00 PM)100% (Apr 22, 4:00 AM)29.95 "Hg (Apr 22, 4:00 AM)
Low68 °F (Apr 22, 2:00 AM)48% (Apr 28, 3:00 PM)29.62 "Hg (May 5, 5:00 PM)
Average78 °F82%29.77 "Hg
* Reported Apr 22 2:00 AM — May 7 2:00 AM, Nanning, Weather by CustomWeather, © 2016

Note: Actual official high and low records may vary slightly from our data, if they occured in-between our weather recording intervals... More about our weather records

Advertising

Nanning Weather History for the Previous 24 Hours

Scroll right to see more
 ConditionsComfort  
Time TempWeatherWind HumidityBarometerVisibility
2:00 AM
Sat, May 7
79 °FClear.1 mph84%29.68 "Hg10 mi
1:00 AM79 °FPassing clouds.3 mph89%29.71 "HgN/A
12:00 AM79 °FPassing clouds.3 mph89%29.71 "HgN/A
11:00 PM
Fri, May 6
81 °FPassing clouds.3 mph84%29.71 "HgN/A
10:00 PM81 °FPassing clouds.6 mph84%29.68 "HgN/A
9:00 PM81 °FPassing clouds.6 mph84%29.65 "HgN/A
8:00 PM82 °FClear.8 mph84%29.65 "Hg10 mi
7:00 PM86 °FPassing clouds.8 mph75%29.62 "HgN/A
6:00 PM88 °FSunny.10 mph70%29.62 "Hg10 mi
5:00 PM91 °FPassing clouds.10 mph63%29.62 "HgN/A
4:00 PM91 °FPassing clouds.10 mph67%29.62 "HgN/A
3:00 PM93 °FPartly sunny.6 mph56%29.65 "HgN/A
2:00 PM93 °FScattered clouds.3 mph59%29.68 "HgN/A
1:00 PM91 °FPartly sunny.6 mph59%29.71 "HgN/A
12:00 PM90 °FBroken clouds.1 mph63%29.74 "HgN/A
11:00 AM88 °FScattered clouds.3 mph66%29.74 "HgN/A
10:00 AM86 °FPassing clouds.3 mph70%29.77 "HgN/A
9:00 AM82 °FSunny.1 mph79%29.74 "Hg10 mi
8:00 AM81 °FSunny.1 mph79%29.74 "Hg10 mi
7:00 AM77 °FSunny.1 mph89%29.71 "Hg10 mi
6:00 AM75 °FClear.1 mph94%29.71 "Hg4 mi
5:00 AM75 °FClear.1 mph94%29.71 "Hg4 mi
4:00 AM77 °FClear.1 mph89%29.68 "Hg4 mi
3:00 AM77 °FClear.3 mph94%29.71 "Hg10 mi
Weather by CustomWeather, © 2016

See weather overviewHow to use our weather pages